Location: Gravenhurst
(44.9196°N, 79.3742°W)
Time: 15:40:37
(UTC-05:00)

N. Korean satellite - Pass Details

Date: 26 October 2019
Orbit: 456 x 506 km, 97.2° (Epoch: 18 November)

Event Time Altitude Azimuth Distance (km) Brightness Sun altitude
Rises 06:06:00 0° 33° (NNE) 2,583 10.7 -18.5°
Reaches altitude 10° 06:09:07 10° 63° (ENE) 1,704 10.3 -18.0°
Maximum altitude 06:10:49 13° 90° (E) 1,538 10.3 -17.7°
Drops below altitude 10° 06:12:31 10° 118° (ESE) 1,706 10.3 -17.4°
Sets 06:15:38 0° 148° (SSE) 2,590 10.7 -16.8°
